This is the latest recevied weather packets stored in our database for station/object SV9TNF-52. If no packets are shown the sender has not sent any weather packets the latest 10 day(s).
| Time | Temp. | Humidity | Pressure | Rain* | Wind** | Luminosity | Snow |
|---|---|---|---|---|---|---|---|
| 1788231485 | 21.67° C | 68% | 1018.3 hPa | 0 mm | 5.36 m/s, 239° | - | - |
| 1788231185 | 21.67° C | 68% | 1018.3 hPa | 0 mm | 6.26 m/s, 225° | - | - |
| 1788230885 | 21.67° C | 67% | 1018.3 hPa | 0 mm | 4.92 m/s, 202° | - | - |
| 1788230585 | 21.67° C | 67% | 1018.3 hPa | 0 mm | 6.71 m/s, 221° | - | - |
| 1788230284 | 22.22° C | 68% | 1018.3 hPa | 0 mm | 4.47 m/s, 245° | - | - |
| 1788229985 | 21.67° C | 67% | 1018.3 hPa | 0 mm | 4.02 m/s, 159° | - | - |
| 1788229684 | 21.67° C | 67% | 1018.3 hPa | 0 mm | 4.92 m/s, 246° | - | - |
| 1788229384 | 21.67° C | 68% | 1019 hPa | 0 mm | 6.26 m/s, 226° | - | - |
| 1788229085 | 22.22° C | 69% | 1019 hPa | 0 mm | 4.47 m/s, 229° | - | - |
| 1788228784 | 21.67° C | 68% | 1019 hPa | 0 mm | 4.47 m/s, 241° | - | - |
| 1788228484 | 21.67° C | 68% | 1019 hPa | 0 mm | 4.92 m/s, 320° | - | - |
| 1788228184 | 21.67° C | 69% | 1019 hPa | 0 mm | 6.26 m/s, 249° | - | - |
| 1788227884 | 21.67° C | 69% | 1018.3 hPa | 0 mm | 5.81 m/s, 204° | - | - |
| 1788227584 | 22.22° C | 70% | 1018.3 hPa | 0 mm | 5.81 m/s, 186° | - | - |
| 1788227283 | 21.67° C | 70% | 1019 hPa | 0 mm | 3.58 m/s, 243° | - | - |
| 1788226984 | 21.67° C | 71% | 1019 hPa | 0 mm | 5.81 m/s, 208° | - | - |
| 1788226683 | 21.67° C | 71% | 1019 hPa | 0 mm | 6.71 m/s, 177° | - | - |
| 1788226383 | 21.67° C | 72% | 1019 hPa | 0 mm | 5.81 m/s, 145° | - | - |
| 1788226083 | 22.22° C | 72% | 1019 hPa | 0 mm | 6.26 m/s, 243° | - | - |
| 1788225784 | 22.22° C | 73% | 1019 hPa | 0 mm | 5.81 m/s, 181° | - | - |
| 1788225483 | 22.22° C | 74% | 1019 hPa | 0 mm | 5.81 m/s, 210° | - | - |
| 1788225183 | 22.22° C | 74% | 1019 hPa | 0 mm | 7.6 m/s, 190° | - | - |
| 1788224883 | 22.78° C | 74% | 1019 hPa | 0 mm | 7.6 m/s, 216° | - | - |
| 1788224583 | 22.78° C | 74% | 1019 hPa | 0 mm | 6.26 m/s, 203° | - | - |
| 1788224283 | 22.78° C | 73% | 1019 hPa | 0 mm | 7.15 m/s, 236° | - | - |
* Rain latest hour (hover to see other rain measurements)
** Current wind speed in m/s (hover to see current wind gust speed)